Retour au catalogue

STARLINK-3105

ActifCommunicationsVLEO
NORAD 49440·PAYLOAD·🇺🇸 United States

Lancé Nov 13, 2021 depuis Cape Canaveral Space Force Station

Loading…

Prochains Passages (prochaines 24 heures)

TLE

FraisSource: CelesTrak SupGP

Époque: Sep 14, 2026, 21:06 UTC

1 49440C 21104AJ  26257.87965278  .00410530  00000+0  13209-1 0  2578
2 49440  53.1607  77.6023 0001513 100.0133  53.2233 15.31478980    13

Suivez STARLINK-3105 en temps réel avec AllMySat

Download on the App Store